Sacramento, CA

11:07 PM PST on February 13, 2016 (GMT -0800)
Sacramento International

Weather History for KSMF - September, 2013

Change the Weather History Date:

Tuesday, September 10, 2013

  Actual Average Record
Temperature  
Mean Temperature 76 °F -  
Max Temperature 91 °F 87 °F 106 °F (2015)
Min Temperature 63 °F 56 °F 49 °F (1983)
Cooling Degree Days 12    
Growing Degree Days 26 (Base 50)    
Moisture  
Dew Point 57 °F    
Average Humidity 60    
Maximum Humidity 80    
Minimum Humidity 31    
Precipitation  
Precipitation 0.00 in - - ()
Sea Level Pressure  
Sea Level Pressure 29.72 in    
Wind  
Wind Speed 10 mph (SSE)    
Max Wind Speed 17 mph    
Max Gust Speed 21 mph    
Visibility 10 miles    
Events      
Averages and records for this station are not official NWS values.
T = Trace of Precipitation, MM = Missing Value Source: NWS Daily Summary

Daily Weather History Graph

Daily Weather History Graph

Search for Another Location

Airport or City:

Trip Planner

Search our weather history database for the weather conditions in past years. The results will help you decide how hot, cold, wet, or windy it might be!

Date:

Astronomy

Sep. 10, 2013 Rise Set
Actual Time 6:43 AM PDT 7:21 PM PDT
Civil Twilight 6:16 AM PDT 7:48 PM PDT
Nautical Twilight 5:45 AM PDT 8:20 PM PDT
Astronomical Twilight 5:12 AM PDT 8:52 PM PDT
Moon 12:11 PM PDT (9/10) 10:33 PM PDT (9/10)
Length of Visible Light 13h 31m
Length of Day
12h 38m
Waxing Crescent, 29% of the Moon is Illuminated
Sep 10
Waxing Crescent
Sep 12
First Quarter
Sep 19
Full
Sep 26
Last Quarter
Oct 4
New

Hourly Weather History & Observations

Time (PDT) Temp. Heat Index Dew Point Humidity Pressure Visibility Wind Dir Wind Speed Gust Speed Precip Events Conditions
12:53 AM 72.0 °F - 54.0 °F 53% 29.65 in 10.0 mi SSE 8.1 mph - N/A   Clear
1:53 AM 70.0 °F - 54.0 °F 57% 29.65 in 10.0 mi South 9.2 mph - N/A   Clear
2:53 AM 68.0 °F - 55.0 °F 63% 29.66 in 10.0 mi SSE 6.9 mph - N/A   Clear
3:53 AM 66.9 °F - 55.0 °F 66% 29.67 in 10.0 mi SSE 8.1 mph - N/A   Clear
4:53 AM 64.0 °F - 55.9 °F 75% 29.67 in 10.0 mi South 6.9 mph - N/A   Clear
5:53 AM 64.0 °F - 55.9 °F 75% 29.69 in 10.0 mi SE 8.1 mph - N/A   Clear
6:53 AM 63.0 °F - 55.9 °F 78% 29.70 in 10.0 mi SSE 6.9 mph - N/A   Clear
7:53 AM 64.9 °F - 55.9 °F 73% 29.73 in 10.0 mi SSE 9.2 mph - N/A   Clear
8:53 AM 68.0 °F - 57.0 °F 68% 29.74 in 10.0 mi SE 6.9 mph - N/A   Clear
9:53 AM 72.0 °F - 55.9 °F 57% 29.75 in 10.0 mi SE 6.9 mph - N/A   Clear
10:53 AM 75.9 °F - 57.0 °F 52% 29.75 in 10.0 mi SE 6.9 mph - N/A   Clear
11:53 AM 80.1 °F 80.6 °F 57.9 °F 47% 29.75 in 10.0 mi SSE 8.1 mph - N/A   Clear
12:53 PM 84.9 °F 83.9 °F 57.0 °F 38% 29.73 in 10.0 mi SSE 10.4 mph - N/A   Clear
1:53 PM 89.1 °F 87.7 °F 57.0 °F 34% 29.72 in 10.0 mi South 9.2 mph - N/A   Clear
2:53 PM 90.0 °F 88.1 °F 55.9 °F 31% 29.70 in 10.0 mi South 9.2 mph - N/A   Clear
3:53 PM 90.0 °F 88.8 °F 57.9 °F 34% 29.70 in 10.0 mi South 13.8 mph 20.7 mph N/A   Clear
4:53 PM 87.1 °F 86.5 °F 59.0 °F 39% 29.69 in 10.0 mi South 16.1 mph - N/A   Clear
5:53 PM 80.1 °F 80.9 °F 60.1 °F 50% 29.70 in 10.0 mi South 17.3 mph - N/A   Clear
6:53 PM 75.0 °F - 59.0 °F 57% 29.72 in 10.0 mi South 16.1 mph - N/A   Clear
7:53 PM 70.0 °F - 59.0 °F 68% 29.74 in 10.0 mi SSE 16.1 mph - N/A   Clear
8:53 PM 66.9 °F - 59.0 °F 76% 29.78 in 10.0 mi SSE 16.1 mph - N/A   Clear
9:53 PM 64.9 °F - 57.9 °F 78% 29.79 in 10.0 mi South 15.0 mph - N/A   Clear
10:53 PM 64.0 °F - 57.9 °F 80% 29.80 in 10.0 mi South 15.0 mph - N/A   Clear
11:53 PM 64.0 °F - 57.9 °F 80% 29.81 in 10.0 mi SSE 15.0 mph - N/A   Clear